TimeCDT,TemperatureF,Dew PointF,Humidity,Sea Level PressureIn,VisibilityMPH,Wind Direction,Wind SpeedMPH,Gust SpeedMPH,PrecipitationIn,Events,Conditions,WindDirDegrees,DateUTC
12:15 AM,39.2,32.0,75,30.08,10.0,WNW,15.0,-,N/A,,Overcast,300,2013-03-12 05:15:00
12:35 AM,37.4,32.0,81,30.08,10.0,WNW,13.8,-,N/A,,Overcast,290,2013-03-12 05:35:00
12:55 AM,37.4,33.8,87,30.09,10.0,WNW,17.3,-,N/A,,Scattered Clouds,290,2013-03-12 05:55:00
1:15 AM,35.6,33.8,93,30.09,10.0,WNW,16.1,21.9,N/A,,Scattered Clouds,300,2013-03-12 06:15:00
1:35 AM,35.6,33.8,93,30.09,10.0,WNW,15.0,-,N/A,,Clear,300,2013-03-12 06:35:00
1:55 AM,33.8,33.8,100,30.10,10.0,NW,12.7,-,N/A,,Clear,310,2013-03-12 06:55:00
2:15 AM,33.8,32.0,93,30.12,10.0,NW,13.8,19.6,N/A,,Clear,310,2013-03-12 07:15:00
3:15 AM,32.0,32.0,100,30.14,10.0,NW,10.4,-,N/A,,Clear,320,2013-03-12 08:15:00
3:55 AM,32.0,32.0,100,30.15,10.0,NW,9.2,-,N/A,,Scattered Clouds,310,2013-03-12 08:55:00
4:15 AM,32.0,32.0,100,30.15,10.0,NW,9.2,-,N/A,,Scattered Clouds,310,2013-03-12 09:15:00
4:35 AM,32.0,32.0,100,30.15,10.0,NW,9.2,-,N/A,,Mostly Cloudy,310,2013-03-12 09:35:00
4:55 AM,32.0,32.0,100,30.15,10.0,WNW,10.4,-,N/A,,Overcast,300,2013-03-12 09:55:00
5:15 AM,32.0,32.0,100,30.16,10.0,NNW,8.1,-,N/A,,Overcast,330,2013-03-12 10:15:00
5:55 AM,32.0,32.0,100,30.18,10.0,WNW,10.4,-,N/A,,Overcast,300,2013-03-12 10:55:00
6:15 AM,32.0,32.0,100,30.20,10.0,NNW,6.9,-,N/A,,Overcast,330,2013-03-12 11:15:00
6:35 AM,32.0,32.0,100,30.20,10.0,NW,6.9,-,N/A,,Overcast,310,2013-03-12 11:35:00
6:55 AM,32.0,32.0,100,30.20,10.0,NW,10.4,-,N/A,,Overcast,310,2013-03-12 11:55:00
7:15 AM,33.8,32.0,93,30.20,10.0,NW,13.8,-,N/A,,Overcast,320,2013-03-12 12:15:00
7:35 AM,33.8,32.0,93,30.21,10.0,NW,12.7,-,N/A,,Overcast,320,2013-03-12 12:35:00
7:55 AM,32.0,30.2,93,30.22,10.0,NW,12.7,-,N/A,,Overcast,320,2013-03-12 12:55:00
8:15 AM,32.0,30.2,93,30.23,10.0,NW,10.4,-,N/A,,Overcast,310,2013-03-12 13:15:00
8:35 AM,32.0,30.2,93,30.24,10.0,NW,12.7,-,N/A,,Overcast,320,2013-03-12 13:35:00
8:55 AM,32.0,30.2,93,30.25,10.0,NW,13.8,-,N/A,,Overcast,320,2013-03-12 13:55:00
9:15 AM,33.8,30.2,87,30.26,10.0,NW,13.8,-,N/A,,Scattered Clouds,320,2013-03-12 14:15:00
9:35 AM,33.8,28.4,81,30.27,10.0,NW,19.6,25.3,N/A,,Clear,320,2013-03-12 14:35:00
9:55 AM,35.6,28.4,75,30.28,10.0,NNW,18.4,-,N/A,,Mostly Cloudy,340,2013-03-12 14:55:00
10:15 AM,35.6,26.6,70,30.28,10.0,NNW,19.6,27.6,N/A,,Overcast,340,2013-03-12 15:15:00
10:35 AM,37.4,28.4,70,30.29,10.0,NNW,23.0,27.6,N/A,,Overcast,330,2013-03-12 15:35:00
10:55 AM,37.4,28.4,70,30.30,10.0,NW,21.9,26.5,N/A,,Scattered Clouds,320,2013-03-12 15:55:00
11:15 AM,37.4,30.2,75,30.30,10.0,NW,23.0,27.6,N/A,,Clear,320,2013-03-12 16:15:00
11:35 AM,39.2,28.4,65,30.30,10.0,NNW,24.2,29.9,N/A,,Scattered Clouds,330,2013-03-12 16:35:00
11:55 AM,41.0,28.4,61,30.30,10.0,NNW,23.0,29.9,N/A,,Scattered Clouds,330,2013-03-12 16:55:00
12:15 PM,41.0,28.4,61,30.30,10.0,NW,19.6,26.5,N/A,,Clear,320,2013-03-12 17:15:00
12:35 PM,41.0,26.6,57,30.30,10.0,NW,24.2,31.1,N/A,,Clear,320,2013-03-12 17:35:00
12:55 PM,41.0,23.0,49,30.30,10.0,NW,20.7,28.8,N/A,,Clear,310,2013-03-12 17:55:00
1:15 PM,42.8,23.0,46,30.30,10.0,NNW,21.9,32.2,N/A,,Clear,330,2013-03-12 18:15:00
1:35 PM,42.8,23.0,46,30.30,10.0,NW,20.7,32.2,N/A,,Clear,320,2013-03-12 18:35:00
1:55 PM,42.8,26.6,53,30.29,10.0,NW,17.3,26.5,N/A,,Clear,310,2013-03-12 18:55:00
2:15 PM,44.6,26.6,49,30.29,10.0,NW,15.0,26.5,N/A,,Clear,310,2013-03-12 19:15:00
2:35 PM,44.6,23.0,43,30.28,10.0,NW,20.7,27.6,N/A,,Clear,310,2013-03-12 19:35:00
2:55 PM,44.6,24.8,46,30.27,10.0,NW,15.0,26.5,N/A,,Clear,310,2013-03-12 19:55:00
3:15 PM,44.6,24.8,46,30.27,10.0,NW,18.4,29.9,N/A,,Clear,320,2013-03-12 20:15:00
3:35 PM,44.6,26.6,49,30.27,10.0,NW,16.1,24.2,N/A,,Clear,310,2013-03-12 20:35:00
3:55 PM,44.6,24.8,46,30.26,10.0,NNW,17.3,25.3,N/A,,Clear,330,2013-03-12 20:55:00
4:15 PM,46.4,24.8,43,30.26,10.0,NW,18.4,27.6,N/A,,Clear,310,2013-03-12 21:15:00
4:35 PM,46.4,24.8,43,30.26,10.0,NW,19.6,27.6,N/A,,Clear,310,2013-03-12 21:35:00
4:55 PM,46.4,23.0,40,30.26,10.0,NW,18.4,24.2,N/A,,Clear,320,2013-03-12 21:55:00
5:15 PM,46.4,23.0,40,30.26,10.0,NW,19.6,25.3,N/A,,Clear,310,2013-03-12 22:15:00
5:35 PM,46.4,23.0,40,30.26,10.0,NNW,16.1,23.0,N/A,,Clear,330,2013-03-12 22:35:00
5:55 PM,46.4,23.0,40,30.25,10.0,NNW,12.7,18.4,N/A,,Clear,340,2013-03-12 22:55:00
6:15 PM,46.4,23.0,40,30.25,10.0,NNW,15.0,18.4,N/A,,Clear,340,2013-03-12 23:15:00
6:55 PM,44.6,23.0,43,30.25,10.0,North,10.4,-,N/A,,Clear,10,2013-03-12 23:55:00
7:15 PM,42.8,23.0,46,30.26,10.0,North,8.1,-,N/A,,Clear,10,2013-03-13 00:15:00
7:35 PM,41.0,23.0,49,30.26,10.0,NNE,4.6,-,N/A,,Clear,20,2013-03-13 00:35:00
7:55 PM,37.4,23.0,56,30.26,10.0,NNE,6.9,-,N/A,,Clear,20,2013-03-13 00:55:00
8:15 PM,35.6,23.0,60,30.27,10.0,NE,5.8,-,N/A,,Clear,40,2013-03-13 01:15:00
8:55 PM,33.8,23.0,65,30.28,10.0,ENE,3.5,-,N/A,,Clear,60,2013-03-13 01:55:00
9:15 PM,33.8,23.0,65,30.29,10.0,East,3.5,-,N/A,,Clear,90,2013-03-13 02:15:00
9:35 PM,32.0,23.0,69,30.29,10.0,Calm,Calm,-,N/A,,Clear,0,2013-03-13 02:35:00
9:55 PM,32.0,23.0,69,30.29,10.0,Calm,Calm,-,N/A,,Clear,0,2013-03-13 02:55:00
10:15 PM,32.0,23.0,69,30.29,10.0,SW,4.6,-,N/A,,Clear,220,2013-03-13 03:15:00
10:35 PM,30.2,24.8,80,30.30,10.0,SW,3.5,-,N/A,,Clear,220,2013-03-13 03:35:00
10:55 PM,32.0,23.0,69,30.30,10.0,ENE,4.6,-,N/A,,Clear,60,2013-03-13 03:55:00
11:15 PM,33.8,23.0,65,30.31,10.0,East,3.5,-,N/A,,Clear,80,2013-03-13 04:15:00
11:35 PM,28.4,24.8,86,30.31,10.0,SSW,4.6,-,N/A,,Mostly Cloudy,200,2013-03-13 04:35:00
11:55 PM,30.2,26.6,86,30.31,10.0,SSW,4.6,-,N/A,,Overcast,210,2013-03-13 04:55:00